Orbital Elements at Epoch 2459000.5 (2020-May-31.0) TDB
Reference: JPL 16 (heliocentric ecliptic J2000)
Element | Value | Uncertainty (1-sigma) | Units |
e | .1328046904045277 | 5.3619e-08 | |
a | 2.346537337397201 | 9.4913e-09 | au |
q | 2.034906172781501 | 1.2641e-07 | au |
i | 6.519323482399614 | 5.6386e-06 | deg |
node | 340.7597722426755 | 3.5137e-05 | deg |
peri | 3.701515848621926 | 3.8306e-05 | deg |
M | 166.0674276301761 | 1.556e-05 | deg |
tp | 2458394.850186133071 (2018-Oct-03.35018613) | 5.6168e-05 | TDB |
period | 1312.924130297514 3.59 | 7.9658e-06 2.181e-08 | d yr |
n | .2741971083419897 | 1.6636e-09 | deg/d |
Q | 2.658168502012901 | 1.0752e-08 | au |
|
| | Orbit Determination Parameters
Additional Information
|